Wind_Speed
31 32 31 30 29 29 29 29 29 28 28 27 27 27 26 26 25 24 24 23 23 23 22 22 22 22 21 21 21 21 21 21 21 21 21 21 22 22 22 22 22 22 22
32 32 32 32 31 31 30 30 31 31 30 30 29 29 29 28 28 27 26 25 25 25 25 25 24 24 23 23 23 23 23 22 22 22 22 22 22 23 23 23 23 23 23
32 32 32 32 32 32 32 31 32 32 33 33 32 31 31 31 30 30 29 29 28 28 28 27 27 26 26 25 25 25 24 24 23 23 23 24 24 24 24 24 24 24 25
32 32 32 32 32 33 33 33 33 33 34 34 34 34 33 33 33 32 32 31 30 30 30 29 29 28 28 27 27 26 26 25 25 25 25 26 25 25 25 25 25 26 26
34 34 33 33 34 34 33 34 35 36 35 34 35 35 35 34 34 34 34 33 32 32 31 31 31 31 30 29 29 29 28 28 27 27 27 27 27 27 27 27 27 28 28
36 35 35 34 34 35 35 35 35 36 36 36 36 36 37 37 36 35 35 35 34 34 33 32 33 33 32 31 31 31 30 30 29 29 29 29 29 29 29 29 29 29 29
36 37 36 36 36 36 35 36 36 36 36 37 37 37 37 38 37 36 36 36 36 35 35 35 35 35 34 34 34 33 32 32 31 31 31 31 31 31 31 31 31 31 31
37 37 38 39 39 38 37 37 37 37 37 37 37 37 37 37 37 37 37 37 37 36 36 36 36 36 35 35 35 35 34 34 34 34 34 34 34 34 34 33 33 33 33
39 38 39 40 40 40 39 39 39 38 38 38 38 38 39 38 38 38 39 38 38 39 38 38 38 37 37 36 36 36 36 36 35 35 35 36 36 36 36 36 36 36 35
40 40 40 40 41 41 41 40 41 41 41 40 41 41 41 41 41 40 40 40 40 40 40 40 40 39 39 39 38 38 37 37 37 37 37 38 37 37 37 37 38 37 37
41 41 41 41 42 42 42 42 42 42 42 42 42 43 43 42 42 42 41 41 42 42 41 40 40 40 40 39 39 39 39 39 39 39 39 39 39 39 38 38 39 39 39
41 40 41 41 42 43 44 43 43 43 43 43 43 43 44 44 43 44 43 42 41 42 41 41 40 41 41 40 40 40 41 41 41 41 40 40 40 40 41 41 41 41 41
41 41 41 42 42 43 44 45 45 45 44 45 45 45 45 45 44 44 44 44 43 43 43 42 42 42 42 42 41 41 41 42 42 42 42 41 42 42 42 42 42 43 43
42 42 43 43 42 43 43 45 46 46 45 45 45 46 46 45 45 45 45 45 45 45 45 44 44 44 44 44 44 43 43 43 44 44 43 43 44 44 45 44 44 44 44
42 41 41 41 43 44 44 45 46 47 47 45 45 46 46 46 46 46 46 46 47 46 46 45 45 46 46 46 46 46 46 45 46 45 45 45 46 46 46 47 47 46 46
42 41 41 42 43 44 45 46 47 47 47 47 46 47 46 45 45 46 46 47 48 48 47 46 46 47 48 48 48 48 48 48 47 46 47 47 48 48 48 48 49 49 49
42 42 43 44 45 46 47 47 47 47 47 46 45 45 46 46 46 46 46 47 48 48 47 47 48 48 49 49 49 49 49 48 49 49 49 49 49 49 50 50 51 51 51
42 42 44 46 46 47 47 47 47 47 46 46 46 45 45 46 46 46 46 47 48 48 48 48 48 49 50 50 50 50 50 50 51 52 52 51 50 50 51 52 52 53 53
42 42 44 44 45 45 45 46 47 47 47 46 47 46 45 46 46 47 48 48 48 48 48 48 49 49 50 50 51 51 51 51 52 52 53 53 53 53 54 54 54 55 56
41 41 42 43 42 43 44 45 46 47 47 47 47 47 47 47 47 48 49 49 50 50 49 49 49 50 50 50 51 53 53 53 52 52 53 54 55 56 56 56 57 57 58
39 40 40 41 41 41 42 44 45 46 46 47 48 47 48 49 49 49 49 50 51 52 51 51 50 50 51 51 52 52 53 54 54 53 54 55 56 57 58 58 58 58 58
38 39 39 39 39 39 40 41 42 43 44 45 46 47 48 49 49 49 49 50 51 51 51 52 52 52 53 53 52 52 52 53 54 54 55 55 57 57 58 58 58 58 59
38 39 39 39 39 39 39 40 41 42 43 45 45 46 48 48 49 49 49 50 50 50 51 52 52 52 52 52 52 51 52 52 53 54 55 55 57 57 58 58 58 58 58
38 38 38 38 38 39 39 40 41 42 43 44 45 46 48 48 48 48 49 50 50 50 51 52 52 52 52 52 53 53 52 52 53 54 56 56 57 57 58 58 58 59 58
37 38 38 38 39 39 40 41 42 42 43 44 45 46 46 46 47 48 49 50 50 50 51 51 52 52 52 53 54 54 53 53 53 53 55 56 56 57 57 57 58 58 57
38 39 39 39 40 40 41 41 42 43 43 44 44 44 46 46 47 48 49 49 49 50 51 51 52 52 53 53 54 54 54 54 53 52 53 54 54 55 55 55 56 56 56
Wind_Direction
243 244 245 245 246 248 249 249 247 246 247 248 250 252 254 255 256 256 258 260 262 264 266 268 270 272 273 276 278 279 279 282 283 285 285 286 287 288 290 292 292 293 294
243 245 246 247 247 248 249 249 249 249 248 250 251 253 255 255 256 257 258 260 263 265 266 267 268 269 272 274 276 278 279 279 281 282 284 286 288 289 289 290 290 291 292
243 245 246 248 248 249 250 250 251 252 252 252 252 253 255 256 257 258 258 260 262 264 265 266 267 268 270 272 274 276 277 278 278 280 283 285 287 288 289 290 290 290 291
242 244 246 247 248 249 251 252 251 253 254 254 254 253 254 256 257 259 259 261 262 264 265 265 266 267 269 270 272 273 275 276 277 279 281 283 285 287 288 289 289 289 291
241 243 245 247 248 249 251 253 254 254 255 256 255 255 255 255 257 258 260 261 262 264 264 265 265 266 267 269 270 272 274 275 276 278 280 281 283 284 286 288 288 289 289
242 243 244 246 248 249 250 253 254 254 255 255 256 257 256 256 257 258 260 260 260 262 263 264 265 265 266 267 269 270 272 274 275 277 278 280 281 283 285 286 287 288 288
244 244 245 247 249 250 251 252 253 255 255 256 257 257 258 257 256 257 258 260 260 261 261 263 265 265 266 267 268 269 271 272 274 275 277 279 280 282 283 285 287 287 287
248 247 247 248 249 251 251 253 254 254 256 256 258 258 258 258 258 258 258 259 260 261 262 263 264 265 266 267 268 269 271 272 273 274 276 278 279 281 283 284 286 286 286
251 250 250 250 250 251 253 255 256 256 257 257 258 258 259 259 259 259 259 260 261 261 262 264 264 265 266 267 268 269 270 271 272 274 276 277 279 281 282 284 285 285 285
251 252 252 252 252 252 253 255 256 257 257 258 258 258 259 259 260 260 260 261 261 261 263 264 264 264 266 267 268 269 269 270 271 273 276 278 279 281 282 283 283 283 283
251 253 253 253 253 253 253 254 256 257 259 259 260 260 259 260 260 260 260 261 260 261 263 264 265 264 264 265 267 267 268 270 270 273 275 277 278 280 281 282 283 282 282
252 253 254 254 253 254 254 255 256 257 259 260 260 261 260 260 260 260 260 259 259 260 261 263 264 264 264 264 267 267 268 269 270 272 274 276 278 279 280 281 281 282 283
253 254 255 254 254 255 256 256 256 257 259 259 259 260 260 259 258 259 259 258 258 259 261 263 264 264 264 264 266 267 268 270 271 273 274 276 278 279 281 281 281 281 282
256 256 256 256 256 257 258 258 257 258 259 259 259 259 259 260 259 257 258 259 258 258 260 262 263 264 264 265 266 267 269 270 271 273 274 276 277 279 280 280 281 281 282
256 258 259 259 259 260 260 260 259 259 259 260 260 260 259 260 260 258 258 259 258 258 260 261 262 264 265 266 267 268 269 271 272 273 274 276 277 279 280 280 281 280 280
257 260 260 261 261 262 262 262 261 260 260 260 260 259 258 259 259 260 258 259 259 258 259 260 262 264 266 267 269 269 270 272 274 274 275 276 278 279 279 280 280 280 280
258 260 261 261 263 263 263 262 261 259 259 258 258 258 259 259 260 260 261 261 260 259 259 261 263 264 265 267 268 271 272 273 274 274 276 276 277 278 280 280 280 280 281
259 261 262 262 263 263 261 259 259 258 258 258 258 258 258 259 261 262 262 263 261 260 260 261 262 264 265 267 268 270 271 273 274 275 275 276 277 279 280 280 280 280 281
261 262 264 262 261 260 259 259 259 258 258 258 258 259 259 259 261 262 262 262 261 262 262 263 263 264 265 267 268 269 270 272 273 274 275 276 276 278 280 280 280 281 282
264 265 265 261 261 260 260 260 260 259 258 259 259 259 260 260 261 263 263 262 262 262 262 264 264 264 265 268 269 270 270 271 273 274 275 276 277 278 280 281 282 283 283
266 267 265 263 262 262 262 262 262 260 259 260 260 260 260 261 263 264 263 262 262 263 264 264 265 266 265 267 269 270 271 272 272 273 274 276 278 279 280 281 282 283 283
266 265 265 265 264 264 263 263 263 261 261 262 261 261 261 263 264 264 263 263 263 263 265 266 267 267 267 267 269 271 272 273 273 274 276 277 278 279 280 281 281 282 282
266 265 264 264 263 264 264 264 264 263 262 262 262 263 263 263 265 264 264 264 263 264 265 267 268 269 269 269 270 272 273 274 276 276 276 278 278 279 280 281 281 281 282
265 264 264 264 265 264 263 264 265 265 264 264 264 265 264 264 264 264 264 264 265 265 267 268 269 270 271 271 272 272 274 275 276 277 278 279 279 280 280 281 281 281 281
264 264 265 266 266 266 265 265 265 265 265 265 265 265 265 265 265 265 265 265 265 266 267 269 270 271 272 272 272 273 274 275 276 278 279 280 280 281 282 282 282 282 281
266 266 265 265 266 267 266 266 265 265 265 266 266 267 267 266 265 265 265 266 266 268 269 269 270 271 271 272 274 274 275 275 277 278 279 280 281 282 282 282 282 282 281
Height
5813 5816 5818 5820 5821 5823 5825 5826 5828 5829 5830 5831 5833 5834 5835 5836 5836 5837 5838 5838 5839 5839 5839 5839 5839 5839 5839 5838 5838 5837 5837 5836 5835 5834 5833 5832 5831 5830 5828 5827 5826 5824 5822
5807 5810 5812 5814 5816 5817 5819 5820 5822 5823 5825 5826 5827 5828 5829 5830 5831 5832 5833 5833 5834 5834 5834 5834 5834 5833 5834 5833 5833 5832 5832 5831 5830 5829 5828 5827 5826 5825 5824 5822 5821 5819 5818
5801 5803 5805 5807 5809 5811 5813 5814 5815 5817 5819 5820 5821 5822 5823 5824 5825 5826 5826 5827 5827 5828 5828 5828 5828 5828 5828 5828 5827 5827 5827 5826 5825 5824 5823 5822 5821 5820 5819 5817 5816 5814 5813
5794 5796 5799 5801 5802 5804 5806 5807 5809 5810 5812 5813 5814 5815 5816 5818 5818 5819 5819 5820 5820 5821 5821 5821 5821 5822 5822 5822 5821 5821 5821 5820 5819 5819 5818 5817 5816 5815 5813 5812 5810 5809 5807
5786 5789 5792 5793 5795 5797 5798 5800 5801 5803 5804 5806 5807 5808 5809 5810 5811 5812 5812 5813 5813 5813 5814 5814 5815 5815 5815 5815 5815 5815 5814 5814 5813 5812 5812 5811 5810 5809 5807 5806 5804 5803 5801
5779 5781 5784 5785 5787 5789 5791 5792 5793 5795 5796 5797 5798 5800 5801 5802 5803 5803 5804 5805 5805 5806 5806 5806 5807 5807 5808 5808 5808 5808 5807 5807 5807 5806 5805 5804 5803 5802 5801 5799 5798 5796 5795
5770 5772 5775 5777 5779 5780 5782 5784 5785 5786 5788 5789 5790 5791 5792 5793 5794 5795 5796 5796 5797 5798 5798 5798 5799 5799 5800 5800 5800 5800 5800 5800 5799 5799 5798 5797 5796 5795 5794 5792 5791 5789 5788
5762 5764 5766 5768 5770 5772 5773 5775 5776 5777 5779 5780 5781 5782 5783 5785 5785 5786 5787 5788 5789 5789 5790 5790 5791 5791 5792 5792 5792 5792 5792 5792 5792 5791 5790 5790 5789 5788 5786 5785 5784 5782 5780
5753 5755 5757 5759 5761 5762 5764 5765 5767 5768 5769 5770 5771 5773 5774 5775 5776 5777 5778 5779 5780 5781 5781 5782 5782 5783 5783 5783 5784 5784 5784 5783 5783 5782 5782 5781 5780 5779 5778 5777 5775 5774 5772
5744 5745 5747 5749 5750 5752 5754 5755 5757 5758 5759 5760 5760 5762 5763 5765 5766 5768 5769 5769 5770 5771 5772 5772 5773 5773 5774 5774 5775 5775 5775 5774 5774 5774 5773 5772 5771 5770 5769 5768 5767 5765 5764
5733 5735 5736 5738 5740 5742 5743 5744 5746 5747 5748 5749 5750 5751 5752 5754 5755 5757 5759 5760 5760 5761 5762 5762 5763 5764 5764 5764 5765 5765 5765 5765 5765 5764 5763 5763 5762 5761 5760 5758 5757 5755 5754
5723 5724 5725 5727 5729 5730 5732 5733 5735 5736 5737 5738 5739 5740 5741 5743 5744 5745 5748 5749 5749 5751 5751 5752 5753 5753 5754 5754 5754 5754 5754 5754 5754 5754 5753 5753 5752 5751 5750 5748 5747 5745 5743
5713 5713 5714 5716 5718 5719 5721 5722 5723 5725 5725 5727 5728 5729 5730 5731 5732 5734 5735 5737 5738 5739 5740 5741 5742 5742 5743 5743 5744 5744 5744 5744 5744 5743 5743 5742 5741 5740 5739 5737 5736 5734 5732
5702 5703 5704 5705 5706 5708 5709 5710 5711 5712 5714 5715 5716 5717 5718 5719 5720 5721 5723 5724 5726 5727 5729 5730 5731 5731 5732 5732 5732 5732 5732 5732 5732 5732 5732 5731 5730 5729 5727 5726 5724 5722 5720
5690 5691 5692 5693 5695 5696 5697 5698 5699 5700 5701 5702 5703 5704 5705 5707 5708 5709 5710 5711 5713 5715 5717 5719 5719 5720 5720 5720 5720 5720 5720 5720 5720 5720 5719 5719 5718 5717 5715 5714 5712 5711 5709
5678 5679 5680 5681 5682 5683 5684 5685 5686 5687 5688 5689 5690 5691 5693 5694 5695 5696 5697 5699 5700 5702 5704 5707 5707 5708 5708 5708 5708 5708 5708 5708 5708 5707 5707 5706 5705 5704 5702 5701 5700 5698 5696
5666 5667 5668 5669 5669 5670 5671 5671 5672 5673 5675 5676 5677 5679 5680 5682 5683 5684 5685 5686 5687 5688 5690 5693 5694 5695 5695 5695 5695 5695 5695 5695 5695 5694 5694 5692 5691 5690 5689 5688 5686 5684 5683
5654 5655 5655 5656 5656 5656 5657 5657 5659 5660 5662 5663 5665 5666 5668 5669 5671 5672 5672 5673 5674 5675 5676 5679 5681 5681 5682 5682 5682 5682 5682 5682 5682 5681 5680 5679 5678 5676 5675 5673 5671 5670 5668
5642 5642 5643 5643 5643 5643 5643 5645 5646 5647 5649 5651 5653 5654 5656 5657 5659 5660 5660 5661 5661 5662 5663 5665 5667 5668 5669 5669 5669 5669 5668 5668 5668 5667 5666 5665 5663 5662 5660 5658 5657 5655 5653
5630 5630 5631 5630 5631 5631 5632 5633 5634 5635 5637 5639 5640 5642 5643 5645 5646 5647 5648 5648 5649 5649 5650 5651 5653 5654 5655 5655 5655 5655 5655 5654 5654 5653 5651 5650 5649 5647 5645 5643 5642 5639 5637
5619 5619 5619 5619 5620 5620 5621 5622 5622 5624 5625 5626 5628 5629 5631 5632 5633 5634 5634 5635 5635 5636 5637 5638 5639 5640 5641 5641 5641 5640 5640 5640 5639 5637 5636 5635 5633 5632 5629 5627 5625 5622 5620
5609 5609 5609 5609 5610 5610 5610 5611 5611 5612 5613 5614 5616 5617 5618 5619 5620 5620 5621 5621 5622 5623 5623 5624 5625 5626 5626 5626 5626 5625 5625 5625 5624 5624 5621 5620 5617 5616 5613 5611 5608 5606 5603
5599 5599 5599 5599 5599 5600 5600 5600 5600 5600 5602 5603 5604 5605 5606 5606 5606 5607 5607 5608 5609 5609 5609 5610 5611 5611 5612 5612 5611 5611 5610 5609 5609 5607 5606 5605 5602 5600 5597 5594 5591 5589 5586
5588 5589 5589 5589 5589 5589 5589 5589 5589 5589 5590 5591 5592 5593 5593 5593 5593 5594 5594 5595 5595 5596 5596 5596 5597 5597 5597 5596 5596 5596 5595 5595 5594 5591 5588 5588 5586 5583 5581 5578 5575 5572 5569
5578 5578 5578 5578 5578 5578 5578 5578 5578 5579 5579 5580 5580 5580 5580 5580 5580 5580 5581 5581 5582 5582 5581 5581 5582 5582 5581 5581 5580 5579 5579 5578 5578 5576 5572 5570 5569 5567 5565 5562 5558 5555 5552
5566 5567 5567 5567 5567 5567 5567 5567 5566 5567 5567 5567 5567 5567 5567 5567 5567 5566 5566 5567 5567 5567 5567 5567 5567 5567 5566 5565 5564 5563 5563 5562 5561 5560 5557 5554 5552 5549 5549 5548 5543 5539 5536